Location: Newark
(47.5833°N, 8.1500°E)
Time: 15:24:26
(UTC+00:00)

Tiros 1 - Pass Details

Date: 28 October 2020
Orbit: 630 x 664 km, 48.4° (Epoch: 29 November)

Event Time Altitude Azimuth Distance (km) Brightness Sun altitude
Exits shadow 04:11:50 42° 235° (SW) 907 7.5 -19.7°
Maximum altitude 04:13:20 74° 162° (SSE) 659 7.1 -19.5°
Drops below altitude 10° 04:17:57 10° 78° (ENE) 2,010 10.9 -18.7°
Sets 04:20:16 0° 76° (ENE) 2,920 12.0 -18.3°
